{"data":{"norad_id":55587,"epoch":"2026-05-25T03:24:14.918976Z","epoch_age_seconds":56608,"freshness":"FRESH","line1":"1 55587U 23020U   26145.14183934  .00000543  00000+0  29282-4 0  9996","line2":"2 55587  43.0045 293.4961 0001688 270.7515  89.3143 15.27576919180607","mean_motion":15.27576919,"eccentricity":0.0001688,"inclination_deg":43.0045,"raan_deg":293.4961,"arg_perigee_deg":270.7515,"mean_anomaly_deg":89.3143,"bstar":2.9282e-5,"rev_number":18060,"period_min":94.266938842115,"perigee_km":481.90015190724,"apogee_km":484.21649144784,"semimajor_km":6861.1953216775,"source":"CELESTRAK","updated_at":"2026-05-25T13:38:17.838019Z"}}